| time (UTC) | temp F | wind direction | speed MPH | gust MPH | rain 1hr in | rain 24hr in | rain mn in | humidity % | barometer mb |
| 20260506224504 | 47 | 257 | 4.0 | 11.0 | 0.02 | 0.51 | 0.51 | 90 | 1008.6 |
| 20260506222958 | 47 | 319 | 5.0 | 11.0 | 0.02 | 0.51 | 0.51 | 89 | 1008.4 |
| 20260506214502 | 58 | 19 | 4.0 | 14.0 | 0.00 | 0.49 | 0.49 | 86 | 1007.4 |
| 20260506212959 | 59 | 269 | 3.0 | 9.0 | 0.01 | 0.49 | 0.49 | 88 | 1006.8 |
| 20260506211459 | 59 | 239 | 3.0 | 8.0 | 0.01 | 0.49 | 0.49 | 89 | 1006.5 |
| 20260506204458 | 59 | 249 | 3.0 | 9.0 | 0.01 | 0.49 | 0.49 | 90 | 1006.3 |
| 20260506202958 | 58 | 272 | 2.0 | 8.0 | 0.00 | 0.48 | 0.48 | 90 | 1006.3 |
| 20260506201458 | 57 | 255 | 3.0 | 7.0 | 0.00 | 0.48 | 0.48 | 90 | 1006.2 |
| 20260506200001 | 58 | 270 | 3.0 | 8.0 | 0.00 | 0.48 | 0.48 | 90 | 1006.6 |
| 20260506194459 | 58 | 146 | 3.0 | 7.0 | 0.00 | 0.48 | 0.48 | 90 | 1006.6 |
| 20260506193000 | 58 | 252 | 3.0 | 7.0 | 0.00 | 0.48 | 0.48 | 91 | 1006.6 |
| 20260506191459 | 57 | 159 | 3.0 | 8.0 | 0.00 | 0.48 | 0.48 | 91 | 1006.8 |
| 20260506185958 | 57 | 191 | 3.0 | 8.0 | 0.00 | 0.48 | 0.48 | 91 | 1006.8 |
| 20260506184458 | 56 | 195 | 3.0 | 8.0 | 0.02 | 0.48 | 0.48 | 91 | 1006.9 |
| 20260506182957 | 56 | 148 | 3.0 | 6.0 | 0.03 | 0.48 | 0.48 | 90 | 1007.0 |
| 20260506181459 | 56 | 201 | 3.0 | 9.0 | 0.04 | 0.48 | 0.48 | 90 | 1007.1 |
| 20260506180001 | 56 | 244 | 3.0 | 10.0 | 0.04 | 0.48 | 0.48 | 90 | 1007.2 |
| 20260506174459 | 56 | 162 | 4.0 | 10.0 | 0.04 | 0.46 | 0.46 | 90 | 1007.2 |
| 20260506172959 | 56 | 153 | 3.0 | 8.0 | 0.05 | 0.45 | 0.45 | 90 | 1007.2 |
| 20260506170000 | 56 | 159 | 3.0 | 10.0 | 0.05 | 0.44 | 0.44 | 90 | 1007.2 |
| 20260506164457 | 56 | 157 | 3.0 | 9.0 | 0.05 | 0.42 | 0.42 | 90 | 1007.2 |
| 20260506163001 | 56 | 137 | 3.0 | 9.0 | 0.06 | 0.40 | 0.40 | 90 | 1007.2 |
| 20260506161458 | 56 | 169 | 3.0 | 9.0 | 0.11 | 0.40 | 0.40 | 89 | 1007.0 |
| 20260506154500 | 55 | 141 | 2.0 | 6.0 | 0.15 | 0.37 | 0.37 | 89 | 1007.4 |
| 20260506151458 | 55 | 167 | 3.0 | 11.0 | 0.12 | 0.29 | 0.29 | 89 | 1007.7 |
| 20260506145958 | 56 | 147 | 4.0 | 12.0 | 0.11 | 0.26 | 0.26 | 88 | 1007.6 |
| 20260506144458 | 56 | 193 | 3.0 | 9.0 | 0.09 | 0.22 | 0.22 | 88 | 1007.5 |
| 20260506142958 | 55 | 149 | 3.0 | 9.0 | 0.10 | 0.20 | 0.20 | 88 | 1007.6 |
| 20260506141458 | 55 | 193 | 4.0 | 9.0 | 0.09 | 0.17 | 0.17 | 88 | 1007.8 |
| 20260506140000 | 55 | 144 | 5.0 | 13.0 | 0.09 | 0.15 | 0.15 | 87 | 1007.9 |
| 20260506134459 | 55 | 154 | 3.0 | 10.0 | 0.10 | 0.13 | 0.13 | 86 | 1008.0 |
| 20260506133000 | 56 | 156 | 5.0 | 10.0 | 0.09 | 0.10 | 0.10 | 85 | 1008.3 |
| 20260506131459 | 56 | 146 | 4.0 | 10.0 | 0.08 | 0.08 | 0.08 | 84 | 1008.4 |
| 20260506130000 | 56 | 154 | 3.0 | 9.0 | 0.06 | 0.06 | 0.06 | 83 | 1008.7 |
| 20260506124500 | 56 | 129 | 3.0 | 15.0 | 0.03 | 0.03 | 0.03 | 81 | 1008.6 |
| 20260506122959 | 57 | 145 | 5.0 | 12.0 | 0.01 | 0.01 | 0.01 | 80 | 1008.2 |
| 20260506121459 | 58 | 113 | 4.0 | 9.0 | 0.00 | 0.00 | 0.00 | 78 | 1008.2 |
| 20260506115959 | 58 | 128 | 5.0 | 15.0 | 0.00 | 0.00 | 0.00 | 76 | 1008.2 |
| 20260506114458 | 58 | 169 | 4.0 | 10.0 | 0.00 | 0.00 | 0.00 | 75 | 1008.2 |
| 20260506105958 | 58 | 106 | 3.0 | 8.0 | 0.00 | 0.00 | 0.00 | 72 | 1007.9 |
| 20260506102957 | 59 | 148 | 3.0 | 8.0 | 0.00 | 0.00 | 0.00 | 68 | 1007.6 |
| 20260506101458 | 59 | 148 | 3.0 | 9.0 | 0.00 | 0.00 | 0.00 | 66 | 1007.8 |
| 20260506094459 | 59 | 122 | 3.0 | 7.0 | 0.00 | 0.00 | 0.00 | 64 | 1007.8 |
| 20260506092959 | 59 | 154 | 3.0 | 9.0 | 0.00 | 0.00 | 0.00 | 63 | 1007.8 |
| 20260506091500 | 60 | 162 | 3.0 | 7.0 | 0.00 | 0.00 | 0.00 | 62 | 1007.9 |
| 20260506090000 | 60 | 221 | 3.0 | 8.0 | 0.00 | 0.00 | 0.00 | 61 | 1008.0 |
| 20260506084459 | 61 | 135 | 4.0 | 9.0 | 0.00 | 0.00 | 0.00 | 60 | 1008.0 |
| 20260506081459 | 61 | 136 | 4.0 | 10.0 | 0.00 | 0.00 | 0.00 | 58 | 1008.1 |
| 20260506072958 | 62 | 153 | 2.0 | 10.0 | 0.00 | 0.00 | 0.00 | 55 | 1008.2 |
| 20260506061458 | 63 | 213 | 4.0 | 11.0 | 0.00 | 0.00 | 0.00 | 52 | 1008.8 |
| 20260506044500 | 62 | 180 | 4.0 | 10.0 | 0.00 | 0.00 | 0.00 | 50 | 1009.3 |
| 20260506042959 | 62 | 134 | 4.0 | 11.0 | 0.00 | 0.00 | 0.00 | 50 | 1009.3 |
| 20260506041459 | 63 | 197 | 4.0 | 9.0 | 0.00 | 0.00 | 0.00 | 50 | 1009.4 |
| 20260506040004 | 63 | 136 | 4.0 | 11.0 | 0.00 | 0.00 | 0.00 | 49 | 1009.5 |
| 20260506034459 | 63 | 154 | 3.0 | 11.0 | 0.00 | 0.00 | 0.00 | 50 | 1009.5 |
| 20260506032959 | 64 | 188 | 3.0 | 8.0 | 0.00 | 0.00 | 0.00 | 50 | 1009.4 |
| 20260506031459 | 64 | 255 | 2.0 | 5.0 | 0.00 | 0.00 | 0.00 | 50 | 1009.4 |
| 20260506030000 | 65 | 156 | 3.0 | 8.0 | 0.00 | 0.00 | 0.00 | 49 | 1009.4 |
| 20260506024500 | 65 | 221 | 2.0 | 9.0 | 0.00 | 0.00 | 0.00 | 49 | 1009.4 |
| 20260506022959 | 65 | 174 | 2.0 | 8.0 | 0.00 | 0.00 | 0.00 | 49 | 1009.5 |
| 20260506021500 | 65 | 155 | 2.0 | 6.0 | 0.00 | 0.00 | 0.00 | 48 | 1009.6 |
| 20260506020000 | 66 | 139 | 2.0 | 7.0 | 0.00 | 0.00 | 0.00 | 47 | 1009.6 |
| 20260506014459 | 67 | 218 | 2.0 | 7.0 | 0.00 | 0.00 | 0.00 | 46 | 1009.6 |
| 20260506011459 | 68 | 143 | 3.0 | 8.0 | 0.00 | 0.00 | 0.00 | 44 | 1009.2 |
| 20260506010000 | 68 | 156 | 3.0 | 7.0 | 0.00 | 0.00 | 0.00 | 44 | 1009.0 |
| 20260506004458 | 69 | 186 | 2.0 | 6.0 | 0.00 | 0.00 | 0.00 | 43 | 1008.8 |
| 20260506002959 | 70 | 257 | 3.0 | 6.0 | 0.00 | 0.00 | 0.00 | 42 | 1008.8 |
| 20260506001459 | 70 | 165 | 4.0 | 12.0 | 0.00 | 0.00 | 0.00 | 42 | 1008.5 |
| 20260506000000 | 70 | 191 | 4.0 | 11.0 | 0.00 | 0.00 | 0.00 | 42 | 1008.4 |
| 20260505234459 | 70 | 150 | 4.0 | 12.0 | 0.00 | 0.00 | 0.00 | 42 | 1008.2 |
| 20260505232959 | 70 | 215 | 3.0 | 14.0 | 0.00 | 0.00 | 0.00 | 42 | 1008.2 |